Location: Gull Harbor
(47.1000°N, 122.9000°W)
Time: 06:49:13
(UTC-08:00)

N. Korean satellite - Visible Passes

Search period start: 17 February 2019 00:00
Search period end: 27 February 2019 00:00
Orbit: 457 x 510 km, 97.2° (Epoch: 17 February)

Date Brightness Start Highest point End Pass type
(mag) Time Alt. Az. Time Alt. Az. Time Alt. Az.
17 Feb 9.4 05:43:01 10° NE 05:45:45 21° E 05:48:26 10° SE visible
18 Feb 10.2 05:19:44 10° ENE 05:20:47 11° E 05:21:50 10° ESE visible
19 Feb 6.7 06:26:22 10° NNE 06:29:52 75° ESE 06:33:17 10° S visible
19 Feb 10.1 18:39:44 10° SW 18:41:52 15° W 18:44:00 10° NW visible
20 Feb 8.3 06:01:50 10° NNE 06:05:04 35° E 06:08:14 10° SSE visible
20 Feb 9.2 18:13:48 10° SSW 18:16:57 27° W 18:20:06 10° NW visible
21 Feb 9.6 05:37:41 10° NE 05:40:09 18° E 05:42:37 10° SE visible
23 Feb 7.0 06:20:50 10° NNE 06:24:17 63° E 06:27:41 10° S visible
23 Feb 10.0 18:33:54 10° SW 18:36:17 17° W 18:38:40 10° NW visible
24 Feb 8.7 05:56:22 10° NNE 05:59:27 30° E 06:02:31 10° SSE visible
25 Feb 9.9 05:32:19 10° NE 05:34:32 16° E 05:36:43 10° SE visible
